Location: *
(43.6428°N, 11.5461°E)
Time: 03:26:47
(UTC+00:00)

ATLAS 3B R/B - Pass Details

Date: 21 October 2019
Orbit: 1029 x 1166 km, 63.8° (Epoch: 10 November)

Event Time Altitude Azimuth Distance (km) Brightness Sun altitude
Rises 18:23:34 0° 204° (SSW) 3,835 5.8 -22.8°
Reaches altitude 10° 18:26:14 10° 202° (SSW) 2,867 5.1 -23.3°
Maximum altitude 18:32:54 67° 121° (ESE) 1,117 2.5 -24.5°
Enters shadow 18:35:05 43° 56° (NE) 1,412 3.0 -24.8°
